EW8835 Weather Reports


time (UTC)temp
C
wind
direction
speed
KPH
gust
KPH
rain 1hr
cm
rain 24hr
cm
rain mn
cm
humidity
%
barometer
mb
20260505012009 7 120 6.4 17.7 0.00 6.40 0.81 84 1004.4
20260505011518 7 239 4.8 16.1 0.00 6.40 0.81 84 1004.4
20260505011019 8 27 4.8 16.1 0.00 6.40 0.81 84 1004.3
20260505010526 8 179 4.8 12.9 0.00 6.40 0.81 84 1004.0
20260505010055 8 164 4.8 12.9 0.00 8.00 0.81 83 1004.0
20260505005532 8 240 4.8 11.3 0.00 8.00 0.81 83 1003.9
20260505005011 8 200 4.8 14.5 0.00 8.00 0.81 82 1003.9
20260505004518 8 88 6.4 19.3 0.00 8.00 0.81 82 1003.7
20260505004020 8 334 6.4 19.3 0.00 8.00 0.81 82 1003.7
20260505003522 8 315 6.4 19.3 0.00 8.00 0.81 81 1003.6
20260505003029 8 349 6.4 16.1 0.00 8.00 0.81 81 1003.5
20260505002510 8 286 4.8 11.3 0.00 8.00 0.81 81 1003.5
20260505002012 8 64 4.8 12.9 0.00 8.00 0.81 80 1003.5
20260505001514 8 356 4.8 12.9 0.00 8.00 0.81 80 1003.3
20260505001022 8 278 4.8 8.0 0.00 8.00 0.81 80 1003.3
20260505000523 8 358 4.8 11.3 0.00 8.00 0.81 79 1003.2
20260505000034 8 91 3.2 11.3 0.00 9.60 0.81 79 1003.0
20260504235513 8 60 3.2 12.9 0.00 9.60 0.81 78 1003.0
20260504235014 8 99 4.8 11.3 0.00 9.60 0.81 78 1002.8
20260504234522 8 262 4.8 11.3 0.00 9.60 0.81 77 1002.8
20260504234023 8 142 4.8 11.3 0.00 9.60 0.81 77 1002.7
20260504233552 8 215 4.8 11.3 0.00 9.60 0.81 76 1002.6
20260504233012 8 207 3.2 11.3 0.00 9.60 0.81 76 1002.6
20260504232513 9 242 3.2 11.3 0.00 9.60 0.81 75 1002.6
20260504232043 9 307 4.8 16.1 0.00 9.60 0.81 74 1002.4
20260504231523 9 52 4.8 16.1 0.00 9.60 0.81 72 1002.4
20260504231031 9 332 3.2 9.7 0.00 9.60 0.81 71 1002.3
20260504230513 10 319 4.8 9.7 0.00 9.60 0.81 70 1002.3
20260504230035 10 94 3.2 9.7 0.00 11.00 0.81 69 1002.3
20260504225521 10 212 3.2 12.9 0.00 11.00 0.81 68 1002.2
20260504225023 10 325 4.8 12.9 0.00 11.00 0.81 67 1002.1
20260504224547 10 231 4.8 11.3 0.00 11.00 0.81 66 1002.2
20260504224027 10 259 4.8 14.5 0.00 11.00 0.81 65 1002.1
20260504223537 10 214 4.8 14.5 0.00 11.00 0.81 64 1002.1
20260504223016 10 199 4.8 11.3 0.00 11.00 0.81 63 1002.1
20260504222518 10 143 4.8 14.5 0.00 11.00 0.81 61 1002.0
20260504222027 10 141 6.4 17.7 0.00 11.00 0.81 61 1001.9
20260504221528 10 353 6.4 17.7 0.00 11.00 0.81 60 1001.9
20260504221009 10 30 6.4 20.9 0.00 11.00 0.81 59 1001.8
20260504220510 11 252 8.0 22.5 0.00 11.00 0.81 58 1001.6
20260504220040 11 241 8.0 22.5 0.00 13.11 0.81 59 1001.6
20260504215519 11 243 8.0 22.5 0.00 13.11 0.81 58 1001.6
20260504215028 11 189 6.4 19.3 0.00 13.11 0.81 59 1001.6
20260504214528 11 264 9.7 19.3 0.00 13.11 0.81 58 1001.5
20260504214009 11 111 8.0 24.1 0.00 13.11 0.81 56 1001.5
20260504213518 11 29 8.0 24.1 0.00 13.11 0.81 56 1001.4
20260504213014 11 162 6.4 19.3 0.00 13.11 0.81 55 1001.4
20260504212514 11 224 6.4 24.1 0.00 13.11 0.81 56 1001.4
20260504212022 11 5 11.3 24.1 0.00 13.11 0.81 56 1001.4
20260504211524 11 223 8.0 20.9 0.00 13.11 0.81 57 1001.5
20260504211025 12 115 6.4 17.7 0.00 13.11 0.81 58 1001.5
20260504210533 12 217 6.4 20.9 0.00 13.11 0.81 59 1001.3
20260504210036 12 176 8.0 20.9 0.00 15.01 0.81 58 1001.4
20260504205521 12 331 8.0 20.9 0.00 15.01 0.81 58 1001.2
20260504205022 12 299 8.0 20.9 0.00 15.01 0.81 58 1001.2
20260504204530 12 217 8.0 17.7 0.00 15.01 0.81 57 1001.1
20260504204012 12 193 6.4 22.5 0.00 15.01 0.81 57 1001.1
20260504203513 12 354 8.0 22.5 0.00 15.01 0.81 57 1000.9
20260504203015 13 94 9.7 19.3 0.00 15.01 0.81 56 1000.9
20260504202521 13 72 8.0 19.3 0.00 15.01 0.81 53 1000.7
20260504202043 14 250 9.7 19.3 0.00 15.01 0.81 51 1000.8
20260504201529 14 295 3.2 11.3 0.00 15.01 0.81 45 1000.7
20260504201010 14 211 4.8 12.9 0.00 15.01 0.81 45 1000.6
20260504200539 14 328 6.4 14.5 0.00 15.01 0.81 43 1000.6
20260504200108 14 290 4.8 14.5 0.00 16.41 0.81 44 1000.5
20260504195526 14 41 6.4 14.5 0.00 16.41 0.81 46 1000.4
20260504195027 14 314 4.8 20.9 0.00 16.41 0.81 43 1000.4
20260504194535 14 308 6.4 20.9 0.00 16.41 0.81 46 1000.4
20260504194016 14 61 3.2 14.5 0.00 16.41 0.81 46 1000.3
20260504193517 13 221 4.8 16.1 0.00 16.41 0.81 44 1000.3
20260504193019 14 293 6.4 16.1 0.00 16.41 0.81 42 1000.2
20260504192526 14 182 4.8 14.5 0.00 16.41 0.81 45 1000.2
20260504192027 14 327 4.8 14.5 0.00 16.41 0.81 45 1000.3
20260504191535 14 300 6.4 14.5 0.00 16.41 0.81 43 1000.1
20260504191016 14 320 6.4 16.1 0.00 16.41 0.81 43 1000.1
20260504190517 14 103 4.8 16.1 0.00 16.41 0.81 46 1000.1
20260504190047 14 68 8.0 16.1 0.00 16.69 0.81 46 1000.0
20260504185546 13 72 4.8 14.5 0.00 16.69 0.81 51 1000.0
20260504185033 13 262 6.4 17.7 0.00 16.69 0.81 49 1000.0
20260504184515 13 281 8.0 17.7 0.00 16.69 0.81 48 1000.0
20260504184015 13 323 8.0 19.3 0.00 16.69 0.81 49 1000.0
20260504183516 13 219 8.0 19.3 0.00 16.69 0.81 49 1000.0
20260504183024 13 184 8.0 16.1 0.00 16.69 0.81 53 999.8
20260504182525 13 90 4.8 19.3 0.00 16.69 0.81 55 999.9
20260504182032 13 287 8.0 19.3 0.00 16.69 0.81 56 1000.0
20260504181510 13 273 4.8 14.5 0.00 16.69 0.81 55 1000.1
20260504181012 13 84 8.0 17.7 0.00 16.69 0.81 57 1000.0
20260504180512 13 98 8.0 17.7 0.00 16.69 0.81 58 1000.1
20260504180043 12 317 6.4 22.5 0.00 16.89 0.81 57 1000.1
20260504175529 12 320 6.4 22.5 0.00 16.89 0.81 57 1000.1
20260504175010 12 321 6.4 20.9 0.00 16.89 0.81 57 1000.0
20260504174510 12 52 11.3 20.9 0.00 16.89 0.81 56 1000.0
20260504174010 12 330 6.4 25.7 0.00 16.89 0.81 60 1000.1
20260504173519 12 322 8.0 25.7 0.00 16.89 0.81 58 999.8
20260504173018 12 39 8.0 17.7 0.00 16.89 0.81 57 999.8
20260504172518 12 266 9.7 22.5 0.00 16.89 0.81 58 999.8
20260504172027 12 304 8.0 22.5 0.00 16.89 0.81 61 999.8
20260504171525 12 102 4.8 19.3 0.00 16.89 0.81 63 999.8
20260504171025 12 348 11.3 19.3 0.00 16.89 0.81 58 999.8
20260504170533 12 258 8.0 19.3 0.00 16.89 0.81 61 999.7
20260504170105 12 303 6.4 20.9 0.00 17.81 0.81 60 999.6
20260504151011 8 335 4.8 17.7 0.00 18.01 0.81 88 998.5
20260504150513 8 304 6.4 17.7 0.00 18.01 0.81 88 998.5
20260504141020 7 312 4.8 14.5 0.00 18.01 0.81 97 997.9
20260504140522 7 326 6.4 14.5 0.00 18.01 0.81 97 997.8
20260504130534 6 341 6.4 16.1 0.00 18.01 0.81 98 996.5
20260504110525 3 358 6.4 14.5 0.61 18.01 0.81 100 994.1
20260504100528 3 270 3.2 9.7 0.89 17.40 0.71 100 992.6
20260504081508 1 307 6.4 12.9 0.10 15.39 0.30 100 988.9
20260504081029 1 305 3.2 16.1 0.00 15.29 0.28 100 988.9
20260504080511 1 4 4.8 16.1 0.00 15.29 0.28 100 988.9
20260504050522 2 330 11.3 32.2 0.20 14.71 0.15 100 983.3
20260504045515 2 321 11.3 27.4 0.30 14.71 0.15 100 983.4
20260504045040 2 40 8.0 25.7 0.41 14.71 0.15 100 983.4
20260504044518 2 283 11.3 25.7 0.41 14.71 0.15 100 983.3
20260504044025 2 4 8.0 32.2 0.41 14.71 0.15 100 983.3
20260504043510 2 356 14.5 32.2 0.41 14.61 0.15 100 983.2
20260504043034 2 36 9.7 29.0 0.41 14.61 0.15 100 983.0
20260504042514 2 24 9.7 29.0 0.51 14.61 0.15 100 983.1
20260504042015 2 345 12.9 33.8 0.61 14.61 0.15 100 983.0
20260504041516 2 24 14.5 38.6 0.51 14.50 0.13 100 983.1
20260504041024 2 149 12.9 38.6 0.61 14.50 0.13 100 983.1
20260504040546 2 41 9.7 30.6 0.51 14.40 0.10 100 983.1
20260504040035 2 100 11.3 33.8 0.61 14.40 0.10 100 983.2
20260504035514 2 61 8.0 27.4 0.61 14.40 0.10 100 983.2
20260504035022 2 69 11.3 25.7 0.51 14.30 0.08 100 983.2
20260504034522 2 65 11.3 22.5 0.71 14.30 0.08 100 983.3
20260504034030 1 68 9.7 27.4 0.71 14.30 0.08 100 983.2
20260504033011 1 4 8.0 32.2 0.79 14.10 0.05 100 983.4
20260504032513 1 316 14.5 27.4 0.89 14.10 0.05 100 983.5
20260504032021 2 28 14.5 25.7 0.89 14.00 0.03 100 983.6
20260504031522 2 345 8.0 30.6 0.79 13.89 0.00 100 983.7
20260504031007 2 356 11.3 30.6 0.89 13.89 0.00 100 983.8
20260504030515 2 47 9.7 30.6 0.99 13.89 0.00 100 984.0
20260504030039 2 357 11.3 27.4 0.89 13.79 2.77 100 983.7
20260504025524 2 25 11.3 22.5 0.99 13.79 2.77 100 984.1
20260504025025 2 8 9.7 22.5 0.89 13.69 2.74 100 984.2
20260504024513 2 16 6.4 22.5 0.89 13.59 2.72 100 984.2
20260504024042 1 56 9.7 35.4 0.99 13.59 2.72 99 984.4
20260504023522 1 23 11.3 35.4 0.99 13.49 2.69 99 984.5
20260504023023 2 330 8.0 29.0 0.89 13.31 2.67 100 984.6
20260504022531 2 41 11.3 33.8 0.89 13.21 2.64 100 984.8
20260504022009 2 20 8.0 24.1 0.79 13.11 2.62 100 984.9
20260504021537 2 63 9.7 22.5 0.99 13.11 2.62 100 985.0
20260504021015 2 48 8.0 25.7 1.09 13.00 2.59 99 985.2
20260504020516 2 57 9.7 25.7 1.19 12.90 2.59 99 985.3
20260504020048 2 56 11.3 22.5 1.40 12.90 2.59 99 985.6
20260504015525 1 262 8.0 29.0 1.40 12.80 2.57 99 985.7
20260504015026 2 25 8.0 29.0 1.40 12.70 2.54 99 985.8
20260504014508 2 16 9.7 27.4 1.50 12.70 2.54 99 986.0
20260504014015 2 44 9.7 27.4 1.50 12.60 2.51 99 986.1
20260504013543 2 11 8.0 20.9 1.50 12.50 2.49 99 986.3
20260504013023 2 46 9.7 22.5 1.60 12.40 2.49 99 986.5
20260504012523 2 22 4.8 22.5 1.70 12.29 2.46 99 986.5